TimeEST,TemperatureF,Dew PointF,Humidity,Sea Level PressureIn,VisibilityMPH,Wind Direction,Wind SpeedMPH,Gust SpeedMPH,PrecipitationIn,Events,Conditions,WindDirDegrees,DateUTC
12:53 AM,46.0,21.0,37,30.24,10.0,SSE,12.7,-,N/A,,Clear,160,2011-11-06 04:53:00
1:53 AM,45.0,21.0,39,30.25,10.0,SSE,9.2,-,N/A,,Clear,160,2011-11-06 05:53:00
1:53 AM,44.1,21.0,40,30.25,10.0,SSE,11.5,-,N/A,,Clear,150,2011-11-06 06:53:00
2:53 AM,44.1,19.9,38,30.25,10.0,SSE,13.8,21.9,N/A,,Clear,160,2011-11-06 07:53:00
3:53 AM,43.0,21.0,42,30.27,10.0,SSE,15.0,24.2,N/A,,Clear,160,2011-11-06 08:53:00
4:53 AM,42.1,21.0,43,30.29,10.0,SSE,13.8,21.9,N/A,,Clear,160,2011-11-06 09:53:00
5:53 AM,42.1,21.0,43,30.30,10.0,SSE,16.1,24.2,N/A,,Clear,150,2011-11-06 10:53:00
6:53 AM,42.1,21.0,43,30.30,10.0,SSE,16.1,24.2,N/A,,Clear,160,2011-11-06 11:53:00
7:53 AM,43.0,21.0,42,30.32,10.0,SSE,15.0,23.0,N/A,,Clear,150,2011-11-06 12:53:00
8:53 AM,46.0,21.9,39,30.32,10.0,SSE,15.0,23.0,N/A,,Clear,160,2011-11-06 13:53:00
9:53 AM,51.1,25.0,36,30.31,10.0,SSE,12.7,-,N/A,,Clear,160,2011-11-06 14:53:00
10:53 AM,57.0,28.9,34,30.30,10.0,SSE,12.7,20.7,N/A,,Clear,160,2011-11-06 15:53:00
11:53 AM,60.1,32.0,35,30.27,10.0,SSE,11.5,-,N/A,,Clear,160,2011-11-06 16:53:00
12:53 PM,63.0,36.0,37,30.24,10.0,South,9.2,-,N/A,,Clear,170,2011-11-06 17:53:00
1:53 PM,63.0,37.0,38,30.22,10.0,SSE,11.5,20.7,N/A,,Clear,160,2011-11-06 18:53:00
2:53 PM,64.0,37.0,37,30.21,10.0,South,11.5,23.0,N/A,,Clear,170,2011-11-06 19:53:00
3:53 PM,62.1,35.1,37,30.21,10.0,SSW,16.1,23.0,N/A,,Clear,200,2011-11-06 20:53:00
4:53 PM,61.0,35.1,38,30.20,10.0,South,12.7,-,N/A,,Clear,170,2011-11-06 21:53:00
5:53 PM,59.0,34.0,39,30.20,10.0,South,12.7,-,N/A,,Clear,170,2011-11-06 22:53:00
6:53 PM,57.0,35.1,44,30.21,10.0,South,10.4,-,N/A,,Clear,170,2011-11-06 23:53:00
7:53 PM,55.9,36.0,47,30.21,10.0,South,9.2,-,N/A,,Clear,170,2011-11-07 00:53:00
8:53 PM,55.0,36.0,49,30.22,10.0,South,9.2,-,N/A,,Clear,180,2011-11-07 01:53:00
9:53 PM,55.4,35.6,47,30.21,10.0,South,12.7,18.4,N/A,,Clear,180,2011-11-07 02:53:00
10:53 PM,55.9,33.1,42,30.22,10.0,South,15.0,24.2,N/A,,Clear,190,2011-11-07 03:53:00